Salisbury, MD

8:23 PM EST on December 16, 2017 (GMT -0500)
Salisbury-Ocean City Wicomico Regional

Weather History for KSBY - August, 2013

Change the Weather History Date:

Thursday, August 29, 2013

  Actual Average Record
Temperature  
Mean Temperature 75 °F 73 °F  
Max Temperature 83 °F 83 °F 99 °F (1948)
Min Temperature 67 °F 64 °F 45 °F (1986)
Degree Days  
Heating Degree Days 0 0  
Month to date heating degree days 0 0  
Since 1 June heating degree days 0 20  
Since 1 July heating degree days 0 1  
Cooling Degree Days 10 8  
Month to date cooling degree days 308 292  
Year to date cooling degree days 1338 967  
Since 1 June cooling degree days 1147 883  
Growing Degree Days 26 (Base 50)    
Moisture  
Dew Point 68 °F    
Average Humidity 75    
Maximum Humidity 87    
Minimum Humidity 62    
Precipitation  
Precipitation T in 0.11 in 1.90 in (1923)
Month to date precipitation 7.30 4.20  
Year to date precipitation 39.68 30.84  
Snow  
Snow 0.00 in 0.00 in 0.00 in (2002)
Month to date snowfall 0.0 0.0  
Since 1 July snowfall 0.0 0.0  
Snow Depth -    
Sea Level Pressure  
Sea Level Pressure 29.97 in    
Wind  
Wind Speed 8 mph (NE)    
Max Wind Speed 18 mph    
Max Gust Speed 24 mph    
Visibility 10 miles    
Events      
T = Trace of Precipitation, MM = Missing Value Source: NWS Daily Summary

Daily Weather History Graph

Daily Weather History Graph

Search for Another Location

Airport or City:

Trip Planner

Search our weather history database for the weather conditions in past years. The results will help you decide how hot, cold, wet, or windy it might be!

Date:

Astronomy

Aug. 29, 2013 Rise Set
Actual Time 6:29 AM EDT 7:35 PM EDT
Civil Twilight 6:01 AM EDT 8:03 PM EDT
Nautical Twilight 5:29 AM EDT 8:35 PM EDT
Astronomical Twilight 4:55 AM EDT 9:09 PM EDT
Moon 12:21 AM EDT (8/29) 3:00 PM EDT (8/29)
Length of Visible Light 14h 01m
Length of Day
13h 06m
Last Quarter, 38% of the Moon is Illuminated
Aug 29
Last Quarter
Sep 5
New
Sep 12
First Quarter
Sep 19
Full
Sep 26
Last Quarter

Hourly Weather History & Observations

Time (EDT) Temp. Heat Index Dew Point Humidity Pressure Visibility Wind Dir Wind Speed Gust Speed Precip Events Conditions
8:54 AM 78.1 °F - 72.0 °F 81% 29.91 in 5.0 mi NE 8.1 mph - N/A   Haze
9:45 AM 80.6 °F 84.6 °F 71.6 °F 74% 29.91 in 9.0 mi NNE 10.4 mph - N/A   Partly Cloudy
9:54 AM 80.1 °F 83.2 °F 70.0 °F 71% 29.92 in 10.0 mi ENE 13.8 mph 19.6 mph N/A   Scattered Clouds
10:05 AM 80.6 °F 83.9 °F 69.8 °F 70% 29.92 in 10.0 mi NE 15.0 mph - N/A   Mostly Cloudy
10:15 AM 80.6 °F 83.9 °F 69.8 °F 70% 29.92 in 10.0 mi NE 13.8 mph - N/A   Scattered Clouds
10:54 AM 82.0 °F 85.9 °F 70.0 °F 67% 29.93 in 10.0 mi ENE 15.0 mph 19.6 mph N/A   Scattered Clouds
11:18 AM 80.6 °F 83.9 °F 69.8 °F 70% 29.93 in 10.0 mi NE 11.5 mph - N/A   Mostly Cloudy
11:42 AM 80.6 °F 83.9 °F 69.8 °F 70% 29.94 in 10.0 mi ENE 15.0 mph - N/A   Mostly Cloudy
11:54 AM 82.0 °F 85.9 °F 70.0 °F 67% 29.95 in 10.0 mi NE 17.3 mph - N/A   Scattered Clouds
12:54 PM 81.0 °F 84.1 °F 69.1 °F 67% 29.96 in 10.0 mi ENE 13.8 mph 21.9 mph N/A   Overcast
1:54 PM 80.1 °F 82.9 °F 69.1 °F 69% 29.98 in 10.0 mi ENE 18.4 mph - N/A   Overcast
2:34 PM 78.8 °F - 68.0 °F 69% 29.98 in 10.0 mi ENE 15.0 mph 21.9 mph N/A   Overcast
2:54 PM 79.0 °F - 66.9 °F 66% 29.99 in 10.0 mi ENE 12.7 mph - N/A   Overcast
3:54 PM 79.0 °F - 66.0 °F 64% 29.99 in 10.0 mi ENE 10.4 mph - N/A   Overcast
4:54 PM 80.1 °F 82.1 °F 66.0 °F 62% 29.99 in 10.0 mi NE 11.5 mph - N/A   Scattered Clouds
5:54 PM 79.0 °F - 66.0 °F 64% 30.00 in 10.0 mi ENE 13.8 mph - N/A   Partly Cloudy
6:54 PM 75.9 °F - 64.9 °F 69% 30.00 in 10.0 mi ENE 11.5 mph - N/A   Clear
7:54 PM 72.0 °F - 64.9 °F 78% 30.01 in 10.0 mi ENE 5.8 mph - N/A   Clear
8:54 PM 71.1 °F - 64.9 °F 81% 30.03 in 10.0 mi Calm Calm - N/A   Clear
9:54 PM 69.1 °F - 64.9 °F 87% 30.03 in 10.0 mi NE 3.5 mph - N/A   Clear
10:54 PM 69.1 °F - 64.9 °F 87% 30.03 in 10.0 mi NE 3.5 mph - N/A   Clear
11:54 PM 68.0 °F - 64.0 °F 87% 30.03 in 10.0 mi Calm Calm - N/A   Clear